CW0498 Weather Reports


Display with metric or nautical units.
time (UTC)temp
F
wind
direction
speed
MPH
gust
MPH
rain 1hr
in
rain 24hr
in
rain mn
in
humidity
%
barometer
mb
20260906044547 72 0 0.0 0.0 0.00 0.00 0.00 95 1013.8
20260906043058 72 0 0.0 0.0 0.00 0.00 0.00 94 1013.9
20260906041556 72 0 0.0 0.0 0.00 0.00 0.00 94 1013.8
20260906040050 73 0 0.0 0.0 0.00 0.00 0.00 93 1014.0
20260906034558 73 0 0.0 0.0 0.00 0.00 0.00 93 1014.1
20260906033046 73 0 0.0 0.0 0.00 0.00 0.00 92 1014.1
20260906031547 74 0 0.0 0.0 0.00 0.00 0.00 92 1014.2
20260906030050 74 0 0.0 0.0 0.00 0.00 0.00 91 1014.4
20260906024612 74 0 0.0 0.0 0.00 0.00 0.00 89 1014.5
20260906023059 75 0 0.0 0.0 0.00 0.00 0.00 89 1014.6
20260906021558 75 0 0.0 0.0 0.00 0.00 0.00 88 1014.6
20260906020055 75 0 0.0 0.0 0.00 0.00 0.00 87 1014.6
20260906014554 75 0 0.0 0.0 0.00 0.00 0.00 87 1014.4
20260906013047 76 0 0.0 0.0 0.00 0.00 0.00 86 1014.2
20260906011555 76 0 0.0 0.0 0.00 0.00 0.00 86 1014.2
20260906010128 76 0 0.0 0.0 0.00 0.00 0.00 86 1014.0
20260906004550 77 0 0.0 1.0 0.00 0.00 0.00 86 1013.2
20260906003047 77 0 0.0 0.0 0.00 0.00 0.00 85 1013.1
20260906001604 77 0 0.0 1.0 0.00 0.00 0.00 83 1012.8
20260906000056 78 0 0.0 0.0 0.00 0.00 0.00 82 1012.4
20260905234551 78 0 0.0 0.0 0.00 0.00 0.00 82 1011.8
20260905233056 79 0 0.0 0.0 0.00 0.00 0.00 80 1011.8
20260905231553 80 0 0.0 1.0 0.00 0.00 0.00 80 1012.7
20260905230052 83 131 1.0 5.0 0.00 0.00 0.00 77 1013.1
20260905224554 86 77 0.0 4.0 0.00 0.00 0.00 67 1013.2
20260905223054 89 20 1.0 4.0 0.00 0.00 0.00 67 1012.5
20260905221553 91 0 0.0 0.0 0.00 0.00 0.00 68 1011.9
20260905220047 91 0 0.0 2.0 0.00 0.00 0.00 65 1011.9
20260905214554 92 0 0.0 1.0 0.00 0.00 0.00 63 1011.7
20260905213105 93 0 0.0 0.0 0.00 0.00 0.00 66 1011.6
20260905211548 93 0 0.0 0.0 0.00 0.00 0.00 63 1011.7
20260905210057 95 0 0.0 1.0 0.00 0.00 0.00 55 1012.1
20260905204551 97 0 0.0 0.0 0.00 0.00 0.00 55 1012.3
20260905203055 96 0 0.0 1.0 0.00 0.00 0.00 61 1012.6
20260905201556 96 0 0.0 1.0 0.00 0.00 0.00 59 1012.7
20260905200059 96 0 0.0 1.0 0.00 0.00 0.00 55 1012.9
20260905194552 96 0 0.0 2.0 0.00 0.00 0.00 58 1012.9
20260905193048 96 0 0.0 1.0 0.00 0.00 0.00 61 1012.9
20260905191554 96 0 0.0 1.0 0.00 0.00 0.00 56 1013.1
20260905190100 94 318 0.0 4.0 0.00 0.00 0.00 61 1013.5
20260905184552 95 227 0.0 1.0 0.00 0.00 0.00 62 1013.7
20260905183106 94 310 0.0 4.0 0.00 0.00 0.00 63 1013.7
20260905181544 93 304 1.0 2.0 0.00 0.00 0.00 64 1014.0
20260905180054 93 263 0.0 4.0 0.00 0.00 0.00 67 1014.1
20260905174548 92 0 0.0 2.0 0.00 0.00 0.00 66 1014.2
20260905173053 91 322 1.0 3.0 0.00 0.00 0.00 68 1014.4
20260905171553 90 271 0.0 2.0 0.00 0.00 0.00 68 1014.6
20260905170057 90 0 0.0 5.0 0.00 0.00 0.00 70 1014.7
20260905164603 89 0 1.0 4.0 0.00 0.00 0.00 70 1014.9
20260905163053 88 305 1.0 4.0 0.00 0.00 0.00 72 1015.2
20260905161546 88 282 1.0 2.0 0.00 0.00 0.00 74 1015.4
20260905160055 86 0 0.0 1.0 0.00 0.00 0.00 76 1015.6
20260905154553 86 0 0.0 1.0 0.00 0.00 0.00 78 1015.7
20260905153052 85 0 0.0 1.0 0.00 0.00 0.00 79 1015.9
20260905151551 84 0 0.0 2.0 0.00 0.00 0.00 79 1015.9
20260905150059 83 252 0.0 1.0 0.00 0.00 0.00 81 1015.8
20260905144556 82 0 0.0 1.0 0.00 0.00 0.00 83 1015.8
20260905143052 81 0 0.0 0.0 0.00 0.00 0.00 85 1015.9
20260905141547 80 311 0.0 2.0 0.00 0.00 0.00 87 1015.9
20260905140109 78 0 0.0 1.0 0.00 0.00 0.00 91 1015.9
20260905134600 77 0 0.0 0.0 0.00 0.00 0.00 94 1015.9
20260905133045 75 0 0.0 0.0 0.00 0.00 0.00 96 1016.0
20260905131558 74 0 0.0 1.0 0.00 0.00 0.00 96 1016.1
20260905130050 74 0 0.0 0.0 0.00 0.00 0.00 96 1016.2
20260905124547 73 0 0.0 0.0 0.00 0.00 0.00 96 1016.2
20260905123103 72 0 0.0 0.0 0.00 0.00 0.00 96 1016.1
20260905121545 72 0 0.0 0.0 0.00 0.00 0.00 96 1015.9
20260905120047 72 0 0.0 0.0 0.00 0.00 0.00 96 1015.8
20260905114556 71 0 0.0 0.0 0.00 0.00 0.00 96 1015.5
20260905113045 72 0 0.0 0.0 0.00 0.00 0.00 96 1015.5
20260905111553 72 0 0.0 0.0 0.00 0.00 0.00 96 1015.4
20260905110048 72 0 0.0 0.0 0.00 0.00 0.00 96 1015.2
20260905104559 72 0 0.0 0.0 0.00 0.00 0.00 96 1015.3
20260905103058 72 0 0.0 0.0 0.00 0.00 0.00 96 1015.3
20260905101552 72 0 0.0 0.0 0.00 0.00 0.00 96 1015.1
20260905100046 72 0 0.0 0.0 0.00 0.00 0.00 96 1015.1
20260905094545 72 0 0.0 0.0 0.00 0.00 0.00 96 1015.2
20260905093050 72 0 0.0 0.0 0.00 0.00 0.00 96 1015.1
20260905091546 72 0 0.0 0.0 0.00 0.00 0.00 96 1014.9
20260905090111 72 0 0.0 0.0 0.00 0.00 0.00 96 1014.9
20260905084544 73 0 0.0 0.0 0.00 0.00 0.00 96 1014.9
20260905083047 73 0 0.0 0.0 0.00 0.00 0.00 96 1014.8
20260905081557 73 0 0.0 0.0 0.00 0.00 0.00 96 1014.9
20260905080044 73 0 0.0 0.0 0.00 0.00 0.00 96 1014.7
20260905074553 73 0 0.0 0.0 0.00 0.00 0.00 96 1014.7
20260905073048 73 0 0.0 0.0 0.00 0.00 0.00 96 1014.8
20260905071545 73 0 0.0 0.0 0.00 0.00 0.00 96 1014.7
20260905070055 74 0 0.0 0.0 0.00 0.00 0.00 96 1014.4
20260905064543 74 0 0.0 0.0 0.00 0.00 0.00 96 1014.4
20260905063047 74 0 0.0 0.0 0.00 0.00 0.00 96 1014.4
20260905061545 74 0 0.0 0.0 0.00 0.00 0.00 96 1014.6
20260905060046 74 0 0.0 0.0 0.00 0.00 0.00 96 1014.9
20260905054551 74 0 0.0 0.0 0.00 0.00 0.00 96 1015.1
20260905053046 74 0 0.0 0.0 0.00 0.00 0.00 96 1015.3
20260905051556 75 0 0.0 0.0 0.00 0.00 0.00 96 1015.3
20260905050054 75 0 0.0 0.0 0.00 0.00 0.00 96 1015.2